When you browse on this site, cookies collect data to enhance your experience and personalize the content and advertising you see.
Visit our Privacy Policy to learn more. By continuing to use the site, you agree to this use of cookies and data.
  • In Lithuania
  • List of Countries
  • For 7 days
  • Water Temperature
  • Weather Map
  • Weather Widgets
  • user-avatar
    Login

    Hourly Weather Koprivnice

    Today, 17 September, Tuesday

    Time Temperature Precipitation Wind Pressure Humidity
    00:00 +14°C° 0.8 mm 1 mps 730 mmHg 96%
    01:00 +14°C° 0.8 mm 1 mps 730 mmHg 97%
    02:00 +14°C° 0.4 mm 1 mps 730 mmHg 96%
    03:00 +13°C° 0.4 mm 1 mps 730 mmHg 96%
    04:00 +13°C° 0.4 mm 2 mps 729 mmHg 96%
    05:00 +13°C° 0.1 mm 2 mps 729 mmHg 95%
    06:00 +13°C° 0.1 mm 1 mps 730 mmHg 94%
    07:00 +12°C° 0.1 mm 1 mps 730 mmHg 93%
    08:00 +13°C° 0 mm 1 mps 730 mmHg 89%
    09:00 +14°C° 0 mm 1 mps 730 mmHg 85%
    10:00 +15°C° 0 mm 1 mps 730 mmHg 81%
    11:00 +16°C° 0 mm 2 mps 729 mmHg 74%
    12:00 +17°C° 0 mm 4 mps 729 mmHg 67%
    13:00 +17°C° 0 mm 5 mps 729 mmHg 60%
    14:00 +16°C° 0 mm 5 mps 728 mmHg 59%
    15:00 +16°C° 0 mm 5 mps 728 mmHg 58%
    16:00 +16°C° 0 mm 6 mps 727 mmHg 57%
    17:00 +15°C° 0 mm 5 mps 727 mmHg 63%
    18:00 +13°C° 0 mm 4 mps 727 mmHg 69%
    19:00 +12°C° 0 mm 3 mps 727 mmHg 75%
    20:00 +11°C° 0 mm 4 mps 728 mmHg 75%
    21:00 +10°C° 0 mm 4 mps 728 mmHg 76%
    22:00 +8°C° 0 mm 4 mps 729 mmHg 76%
    23:00 +8°C° 0 mm 4 mps 729 mmHg 76%

    Tomorrow, 18 September, Wednesday

    Time Temperature Precipitation Wind Pressure Humidity
    00:00 +7°C° 0 mm 4 mps 729 mmHg 77%
    01:00 +6°C° 0 mm 4 mps 730 mmHg 77%
    02:00 +6°C° 0 mm 4 mps 730 mmHg 79%
    03:00 +5°C° 0 mm 3 mps 730 mmHg 80%
    04:00 +4°C° 0 mm 3 mps 731 mmHg 82%
    05:00 +5°C° 0 mm 3 mps 731 mmHg 81%
    06:00 +5°C° 0 mm 3 mps 732 mmHg 80%
    07:00 +5°C° 0 mm 3 mps 732 mmHg 79%
    08:00 +8°C° 0 mm 3 mps 733 mmHg 74%
    09:00 +9°C° 0 mm 3 mps 733 mmHg 68%
    10:00 +10°C° 0 mm 3 mps 734 mmHg 63%
    11:00 +11°C° 0 mm 3 mps 734 mmHg 60%
    12:00 +12°C° 0 mm 3 mps 734 mmHg 57%
    13:00 +12°C° 0 mm 3 mps 734 mmHg 54%
    14:00 +13°C° 0 mm 3 mps 734 mmHg 54%
    15:00 +13°C° 0 mm 3 mps 734 mmHg 54%
    16:00 +13°C° 0 mm 3 mps 733 mmHg 54%
    17:00 +11°C° 0 mm 3 mps 734 mmHg 60%
    18:00 +10°C° 0 mm 2 mps 734 mmHg 67%
    19:00 +8°C° 0 mm 2 mps 734 mmHg 73%
    20:00 +8°C° 0 mm 2 mps 734 mmHg 73%
    21:00 +8°C° 0 mm 2 mps 735 mmHg 74%
    22:00 +9°C° 0 mm 1 mps 735 mmHg 75%
    23:00 +8°C° 0 mm 1 mps 735 mmHg 75%

    Day after tomorrow, 19 September, Thursday

    Time Temperature Precipitation Wind Pressure Humidity
    00:00 +8°C° 0 mm 1 mps 735 mmHg 75%
    01:00 +8°C° 0 mm 1 mps 735 mmHg 76%
    02:00 +7°C° 0 mm 1 mps 735 mmHg 78%
    03:00 +7°C° 0 mm 1 mps 735 mmHg 80%
    04:00 +7°C° 0 mm 1 mps 735 mmHg 82%
    05:00 +7°C° 0 mm 1 mps 735 mmHg 81%
    06:00 +7°C° 0 mm 1 mps 735 mmHg 81%
    07:00 +7°C° 0 mm 1 mps 736 mmHg 80%
    08:00 +9°C° 0.1 mm 1 mps 736 mmHg 74%
    09:00 +9°C° 0.1 mm 2 mps 736 mmHg 68%
    10:00 +10°C° 0.1 mm 2 mps 737 mmHg 61%
    11:00 +11°C° 0.1 mm 3 mps 737 mmHg 61%
    12:00 +11°C° 0.1 mm 3 mps 737 mmHg 60%
    13:00 +11°C° 0.1 mm 3 mps 736 mmHg 59%
    14:00 +12°C° 0.1 mm 3 mps 736 mmHg 59%
    15:00 +12°C° 0.1 mm 3 mps 736 mmHg 59%
    16:00 +12°C° 0.1 mm 3 mps 736 mmHg 59%
    17:00 +10°C° 0.1 mm 3 mps 736 mmHg 67%
    18:00 +9°C° 0.1 mm 2 mps 737 mmHg 75%
    19:00 +7°C° 0.1 mm 2 mps 737 mmHg 83%
    20:00 +7°C° 0 mm 2 mps 737 mmHg 84%
    21:00 +8°C° 0 mm 1 mps 738 mmHg 84%
    22:00 +8°C° 0 mm 1 mps 738 mmHg 85%
    23:00 +7°C° 0 mm 1 mps 738 mmHg 86%

    20 September, Friday

    Time Temperature Precipitation Wind Pressure Humidity
    00:00 +7°C° 0 mm 1 mps 738 mmHg 87%
    01:00 +6°C° 0 mm 1 mps 738 mmHg 88%
    02:00 +6°C° 0 mm 1 mps 738 mmHg 88%
    03:00 +6°C° 0 mm 1 mps 738 mmHg 89%
    04:00 +4°C° 0 mm 0 mps 738 mmHg 89%
    05:00 +5°C° 0 mm 0 mps 738 mmHg 87%
    06:00 +6°C° 0 mm 0 mps 738 mmHg 84%
    07:00 +7°C° 0 mm 0 mps 738 mmHg 82%
    08:00 +9°C° 0 mm 1 mps 738 mmHg 75%
    09:00 +11°C° 0 mm 1 mps 739 mmHg 68%
    10:00 +12°C° 0 mm 1 mps 739 mmHg 60%
    11:00 +13°C° 0.1 mm 1 mps 739 mmHg 59%
    12:00 +13°C° 0.1 mm 1 mps 739 mmHg 58%
    13:00 +14°C° 0.1 mm 2 mps 738 mmHg 57%
    14:00 +13°C° 0 mm 2 mps 738 mmHg 58%
    15:00 +13°C° 0 mm 2 mps 738 mmHg 59%
    16:00 +13°C° 0 mm 2 mps 738 mmHg 60%
    17:00 +12°C° 0 mm 1 mps 738 mmHg 67%
    18:00 +10°C° 0 mm 1 mps 738 mmHg 73%
    19:00 +9°C° 0 mm 1 mps 738 mmHg 80%
    20:00 +8°C° 0 mm 1 mps 739 mmHg 81%
    21:00 +8°C° 0 mm 1 mps 739 mmHg 82%
    22:00 +6°C° 0 mm 0 mps 739 mmHg 84%
    23:00 +6°C° 0 mm 0 mps 739 mmHg 84%

    21 September, Saturday

    Time Temperature Precipitation Wind Pressure Humidity
    00:00 +6°C° 0 mm 0 mps 739 mmHg 84%
    01:00 +6°C° 0 mm 0 mps 739 mmHg 84%
    02:00 +6°C° 0 mm 0 mps 739 mmHg 85%
    03:00 +5°C° 0 mm 0 mps 739 mmHg 86%
    04:00 +5°C° 0 mm 0 mps 739 mmHg 86%
    05:00 +6°C° 0 mm 0 mps 739 mmHg 83%
    06:00 +7°C° 0 mm 0 mps 739 mmHg 80%
    07:00 +9°C° 0 mm 1 mps 739 mmHg 76%
    08:00 +11°C° 0 mm 1 mps 739 mmHg 68%
    09:00 +13°C° 0 mm 1 mps 740 mmHg 60%
    10:00 +15°C° 0 mm 1 mps 740 mmHg 51%
    11:00 +16°C° 0 mm 1 mps 740 mmHg 48%
    12:00 +18°C° 0 mm 1 mps 739 mmHg 45%
    13:00 +19°C° 0 mm 1 mps 739 mmHg 42%
    14:00 +19°C° 0 mm 1 mps 739 mmHg 44%
    15:00 +18°C° 0 mm 1 mps 739 mmHg 46%
    16:00 +18°C° 0 mm 1 mps 738 mmHg 47%
    17:00 +15°C° 0 mm 1 mps 738 mmHg 54%
    18:00 +13°C° 0 mm 1 mps 738 mmHg 60%
    19:00 +11°C° 0 mm 1 mps 738 mmHg 67%
    20:00 +11°C° 0 mm 1 mps 738 mmHg 67%
    21:00 +10°C° 0 mm 1 mps 738 mmHg 68%
    22:00 +10°C° 0 mm 1 mps 738 mmHg 68%
    23:00 +10°C° 0 mm 1 mps 738 mmHg 68%

    22 September, Sunday

    Time Temperature Precipitation Wind Pressure Humidity
    00:00 +9°C° 0 mm 1 mps 738 mmHg 69%
    01:00 +9°C° 0 mm 1 mps 738 mmHg 69%
    02:00 +9°C° 0 mm 1 mps 738 mmHg 69%
    03:00 +9°C° 0 mm 1 mps 738 mmHg 69%
    04:00 +7°C° 0 mm 2 mps 738 mmHg 69%
    05:00 +9°C° 0 mm 1 mps 738 mmHg 68%
    06:00 +10°C° 0 mm 1 mps 738 mmHg 66%
    07:00 +11°C° 0 mm 1 mps 738 mmHg 65%
    08:00 +13°C° 0 mm 2 mps 738 mmHg 57%
    09:00 +15°C° 0 mm 2 mps 738 mmHg 50%
    10:00 +17°C° 0 mm 3 mps 739 mmHg 43%
    11:00 +18°C° 0 mm 3 mps 738 mmHg 41%
    12:00 +19°C° 0 mm 3 mps 738 mmHg 40%
    13:00 +20°C° 0 mm 4 mps 738 mmHg 39%
    14:00 +20°C° 0 mm 3 mps 737 mmHg 42%
    15:00 +20°C° 0 mm 3 mps 737 mmHg 45%
    16:00 +19°C° 0 mm 3 mps 737 mmHg 47%
    17:00 +17°C° 0 mm 2 mps 737 mmHg 53%
    18:00 +15°C° 0 mm 2 mps 737 mmHg 58%
    19:00 +13°C° 0 mm 2 mps 736 mmHg 63%
    20:00 +12°C° 0 mm 2 mps 737 mmHg 65%
    21:00 +12°C° 0 mm 2 mps 737 mmHg 66%
    22:00 +10°C° 0 mm 2 mps 737 mmHg 68%
    23:00 +10°C° 0 mm 2 mps 737 mmHg 67%
    Show more